Regional Weather Roundup
Issued by NWS

Home | Current Version | Previous Version | Graphics & Text | Print | Product List | Glossary On
Versions: 1 2 3 4 5 6 7 8 9 10 11 12 13 14 15 16 17 18 19 20 21 22 23 24 25 26 27 28 29 30 31 32 33 34 35 36 37 38 39 40 41 42 43 44 45 46 47 48 49 50
025
ASUS45 KABQ 280710
RWRNM
NEW MEXICO REGIONAL WEATHER ROUNDUP
NATIONAL WEATHER SERVICE ALBUQUERQUE NM
100 AM MDT TUE MAR 28 2017

NOTE: "FAIR" MEANS FEW OR NO CLOUDS BELOW 12,000 FEET AGL WITH NO
       SIGNIFICANT WEATHER OR OBSTRUCTIONS TO VISION.

      THIS PRODUCT IS RELEASED AS TWO VERSIONS.  ONE VERSION NEAR
      THE TOP OF THE HOUR CONTAINING PRELIMINARY DATA FROM ALBUQUERQUE
      AND OTHER STATIONS.  A FINAL VERSION WITH ADDITIONAL DATA IS
      ISSUED ABOUT 10 MINUTES AFTER THE HOUR.

NMZ501-503-504-510>518-280800-
NORTHWEST PLATEAU/NORTHCENTRAL MOUNTAINS

CITY           SKY/WX    TMP DP  RH WIND       PRES   REMARKS
FARMINGTON     LGT RAIN  42  38  85 E3        29.86R
LOS ALAMOS     FAIR      40  36  83 NW5       29.91F
SANTA FE       MOCLDY    42  40  92 N10       29.86F
TAOS             N/A     39  32  75 NE5       29.91F
ANGEL FIRE     LGT RAIN  36  33  89 CALM      29.95F

$$
NMZ402-403-502-505>509-280800-
WESTCENTRAL MOUNTAINS/SOUTHWEST MOUNTAINS

CITY           SKY/WX    TMP DP  RH WIND       PRES   REMARKS
GALLUP         FAIR      38  31  76 W8        29.91S WCI  32
GRANTS         FAIR      34  30  86 S7        29.90F WCI  27
SILVER CITY    CLOUDY    50  30  47 N3        29.86F

$$
NMZ407-409-411-412-280800-
SOUTHERN DESERTS

CITY           SKY/WX    TMP DP  RH WIND       PRES   REMARKS
DEMING         CLOUDY    61  29  29 W9        29.82F
LAS CRUCES     MOCLDY    62  30  30 W10       29.83S
HOLLOMAN AFB   CLOUDY    64  34  33 S6        29.83R
ALAMOGORDO     CLOUDY    63  32  31 S9        29.81S
T OR C         FAIR      59  29  31 CALM      29.80F

$$
NMZ519>523-280800-
CENTRAL VALLEYS/CENTRAL HIGHLANDS

CITY           SKY/WX    TMP DP  RH WIND       PRES   REMARKS
ALBUQUERQUE    MOCLDY    51  38  60 NW5       29.85F
MORIARTY ARPT  LGT RAIN  49  38  65 NE5       29.88S
CLINES CORNERS CLOUDY    47  34  60 W8        29.91S
BELEN          FAIR      46  33  62 CALM      29.86S
SOCORRO        MOCLDY    55  33  43 N6        29.83S

$$
NMZ524>526-539-540-280800-
SOUTHCENTRAL MOUNTAINS

CITY           SKY/WX    TMP DP  RH WIND       PRES   REMARKS
RUIDOSO        CLOUDY    52  28  40 SW5       29.94S

$$
NMZ527>531-280800-
NORTHEAST HIGHLANDS/NORTHEAST PLAINS

CITY           SKY/WX    TMP DP  RH WIND       PRES   REMARKS
LAS VEGAS      CLOUDY    48  34  58 W10       29.88F
RATON          CLOUDY    48  33  56 S8        29.85F
CLAYTON        FAIR      48  40  73 SE14      29.85F

$$
NMZ532>537-280800-
EASTCENTRAL PLAINS

CITY           SKY/WX    TMP DP  RH WIND       PRES   REMARKS
TUCUMCARI      MOCLDY    60  34  37 S14       29.77S
CANNON AFB     MOCLDY    57  38  49 SE20      29.85R
CLOVIS AIRPORT MOCLDY    55  36  47 SE15      29.86R

$$
NMZ028-029-538-280800-
SOUTHEAST PLAINS

CITY           SKY/WX    TMP DP  RH WIND       PRES   REMARKS
ROSWELL        FAIR      62  26  25 SE5         N/A
ARTESIA        FAIR      63  28  27 S10       29.77F
CARLSBAD       FAIR      62  27  26 S5        29.75F
HOBBS          FAIR      57  30  35 SE12G18   29.81F


$$




USA.gov is the U.S. government's official web portal to all federal, state and local government web resources and services.